This is the latest recevied weather packets stored in our database for station/object VA3JLF-1. If no packets are shown the sender has not sent any weather packets the latest 10 day(s).
| Time | Temp. | Humidity | Pressure | Rain* | Wind** | Luminosity | Snow |
|---|---|---|---|---|---|---|---|
| 1777929959 | 20° C | 51% | 998.9 hPa | 0 mm | - | - | - |
| 1777929359 | 19.44° C | 53% | 998.9 hPa | 0 mm | - | - | - |
| 1777928757 | 19.44° C | 54% | 998.9 hPa | 0 mm | - | - | - |
| 1777928157 | 19.44° C | 54% | 999.2 hPa | 0 mm | - | - | - |
| 1777927557 | 20° C | 55% | 999.3 hPa | 0 mm | - | - | - |
| 1777926957 | 20° C | 53% | 999.4 hPa | 0 mm | - | - | - |
| 1777926357 | 19.44° C | 54% | 999.7 hPa | 0 mm | - | - | - |
| 1777925757 | 20° C | 55% | 999.6 hPa | 0 mm | - | - | - |
| 1777925157 | 19.44° C | 55% | 999.7 hPa | 0 mm | - | - | - |
| 1777924557 | 20° C | 55% | 999.6 hPa | 0 mm | - | - | - |
| 1777923957 | 19.44° C | 55% | 999.8 hPa | 0 mm | - | - | - |
| 1777923357 | 18.89° C | 56% | 1000.2 hPa | 0 mm | - | - | - |
| 1777922758 | 19.44° C | 56% | 1000.1 hPa | 0 mm | - | - | - |
| 1777922157 | 18.89° C | 58% | 1000.4 hPa | 0 mm | - | - | - |
| 1777921557 | 18.89° C | 55% | 1000.7 hPa | 0 mm | - | - | - |
| 1777920957 | 18.89° C | 58% | 1000.7 hPa | 0 mm | - | - | - |
| 1777920358 | 18.33° C | 56% | 1000.7 hPa | 0 mm | - | - | - |
| 1777919757 | 18.33° C | 56% | 1000.6 hPa | 0 mm | - | - | - |
| 1777919157 | 18.33° C | 60% | 1000.9 hPa | 0 mm | - | - | - |
| 1777918558 | 17.78° C | 59% | 1001.1 hPa | 0 mm | - | - | - |
| 1777917957 | 16.67° C | 61% | 1001.1 hPa | 0 mm | - | - | - |
| 1777917357 | 16.67° C | 59% | 1001.2 hPa | 0 mm | - | - | - |
| 1777916757 | 16.67° C | 59% | 1001.3 hPa | 0 mm | - | - | - |
| 1777916157 | 16.11° C | 60% | 1001.3 hPa | 0 mm | - | - | - |
| 1777915557 | 16.11° C | 60% | 1001.5 hPa | 0 mm | - | - | - |
* Rain latest hour (hover to see other rain measurements)
** Current wind speed in m/s (hover to see current wind gust speed)